Wind_Speed
11 12 16 21 23 22 22 23 24 24 24 24 25 24 24 22 20 18 16 15 13 12 10 10 10 13 15 17 19 19 18 17 17
11 8 5 10 18 22 23 23 25 26 26 24 23 22 22 23 22 21 16 16 14 11 12 13 16 17 17 16 16 17 17 16 16
11 9 7 9 10 17 21 22 22 23 24 24 22 21 20 20 21 21 19 20 19 17 16 15 17 17 16 16 13 13 14 13 13
14 9 8 7 10 12 16 19 21 23 22 21 20 20 19 16 16 16 16 17 18 20 18 18 20 20 17 16 14 14 14 12 13
14 9 7 8 9 11 14 17 18 19 20 21 18 15 16 17 15 15 14 18 16 15 16 18 20 16 16 17 16 15 15 13 12
16 12 11 10 9 11 13 15 15 17 18 18 19 16 14 13 11 10 12 12 13 14 17 17 15 17 18 18 18 18 17 17 16
18 15 14 14 12 11 13 14 15 15 14 15 15 14 12 11 8 8 8 9 11 11 13 17 17 15 18 19 19 18 18 19 17
20 18 18 16 15 14 14 14 14 14 13 14 12 12 10 9 7 7 9 9 10 11 12 13 14 17 19 19 19 18 18 18 16
24 23 21 20 18 17 17 16 14 14 14 12 11 10 7 8 9 8 4 4 4 6 8 11 12 14 16 17 17 18 20 20 20
27 26 24 24 23 21 19 17 16 14 12 10 9 8 7 6 6 4 4 2 2 3 4 6 8 10 12 14 15 17 17 21 20
30 29 28 26 25 24 22 19 16 14 12 11 10 10 9 7 6 6 4 2 5 8 11 13 15 15 15 16 14 17 20 20 21
28 36 34 30 26 25 23 22 20 17 15 13 12 11 11 9 7 5 5 7 8 11 16 19 21 19 21 23 23 22 27 26 24
30 34 35 31 27 25 22 21 20 17 15 14 12 11 9 7 5 4 4 9 15 20 23 21 16 22 24 25 26 27 27 28 25
23 29 35 32 29 26 24 21 19 18 15 14 13 11 8 6 3 4 10 12 18 22 23 25 27 28 30 29 23 19 20 23 21
12 26 33 31 27 24 23 21 19 17 15 14 14 10 9 6 6 6 8 14 19 22 24 24 23 24 24 21 21 20 20 21 22
4 22 23 24 21 22 20 20 17 17 17 14 12 10 6 4 7 11 14 19 21 19 20 23 24 24 22 22 20 18 19 20 23
16 17 21 22 23 20 18 17 16 17 14 13 12 12 11 10 13 16 18 16 17 20 20 21 21 22 22 22 21 20 19 17 13
17 18 19 20 19 19 18 18 17 11 10 6 4 9 12 13 16 11 17 21 20 22 23 22 22 24 24 25 25 23 26 28 31
20 17 17 17 16 14 13 13 13 11 10 9 10 12 12 10 13 17 20 22 24 25 26 26 26 24 27 27 27 31 31 35 38
18 16 16 16 18 15 11 8 5 6 9 11 14 14 14 13 15 19 21 22 25 27 24 25 27 28 26 27 29 31 33 36 41
Wind_Direction
196 214 208 216 201 208 206 203 202 204 207 207 213 216 221 224 226 225 229 233 232 243 250 254 259 259 261 260 264 272 273 279 290
187 175 183 210 209 203 207 206 205 205 206 208 210 213 218 222 227 224 230 228 238 249 266 266 264 261 264 268 272 269 267 271 271
153 157 177 188 207 202 205 210 205 204 207 209 208 207 214 221 230 234 234 234 241 239 245 263 275 270 275 280 271 267 274 263 274
163 165 169 194 198 206 203 207 207 209 207 206 208 211 211 218 225 232 244 245 246 251 252 265 283 282 274 266 265 264 271 268 238
155 164 162 172 184 192 198 202 204 205 207 209 209 205 205 213 216 221 243 250 242 251 250 263 278 279 268 264 264 265 266 265 246
158 167 161 162 164 179 184 188 190 194 197 201 203 201 196 199 218 241 250 243 248 245 257 272 272 271 270 273 270 271 265 262 259
171 181 168 167 163 165 166 167 172 173 182 183 187 197 203 212 227 243 243 245 252 252 261 268 280 275 268 275 278 274 272 268 266
178 187 179 169 164 166 161 162 162 164 171 172 178 182 196 210 210 213 223 246 266 278 284 282 285 278 282 284 285 282 278 277 278
190 193 188 175 171 172 169 168 163 161 165 176 180 188 198 215 231 244 248 259 288 301 303 307 303 301 299 294 290 289 284 279 271
202 202 194 181 177 177 177 174 169 166 166 174 197 208 197 180 155 169 186 209 233 278 302 299 299 296 299 299 296 290 289 286 286
203 208 203 193 180 177 175 171 168 167 167 173 168 155 155 167 165 181 195 260 297 306 309 313 313 312 307 300 298 290 287 285 289
212 207 208 202 190 180 172 168 166 161 161 165 161 162 165 175 186 213 263 281 301 312 313 311 309 307 302 301 299 291 292 290 286
236 210 201 201 196 175 175 171 165 163 164 163 165 169 182 195 219 249 301 318 322 321 319 320 305 302 303 302 298 293 289 292 292
286 211 193 192 185 175 177 174 169 161 166 171 177 173 175 192 221 305 322 315 322 320 316 311 309 307 312 314 315 315 311 310 306
261 202 180 185 169 175 175 173 170 162 162 176 191 193 196 213 257 282 277 307 316 308 309 313 313 310 307 301 303 302 298 298 298
154 145 152 162 169 173 178 172 168 162 172 191 180 182 189 212 261 285 303 306 302 309 311 304 302 300 299 299 298 295 293 295 297
147 149 157 166 164 166 170 163 158 167 184 188 193 224 230 267 285 302 304 301 294 297 299 297 297 298 298 296 293 293 295 291 288
149 153 154 148 152 166 162 158 155 150 160 168 200 256 273 283 299 301 289 295 296 294 293 292 292 293 296 296 292 289 279 280 283
119 122 131 147 157 153 150 154 178 187 194 218 266 277 297 299 278 292 295 298 300 297 298 300 296 297 301 297 293 298 300 300 300
125 125 140 154 159 171 166 164 202 212 232 245 243 257 277 290 296 297 298 302 300 300 301 300 302 301 301 302 301 301 302 294 295
Height
1502 1506 1509 1512 1518 1526 1531 1535 1539 1543 1546 1548 1550 1553 1557 1559 1561 1563 1564 1566 1568 1569 1570 1571 1571 1571 1569 1568 1566 1565 1564 1563 1563
1498 1502 1504 1509 1512 1519 1526 1532 1535 1538 1542 1544 1547 1551 1553 1556 1558 1559 1563 1563 1564 1565 1565 1565 1564 1564 1563 1561 1560 1560 1560 1559 1559
1497 1502 1506 1509 1512 1515 1522 1528 1532 1536 1539 1542 1545 1549 1550 1552 1554 1555 1557 1558 1559 1560 1562 1561 1560 1559 1557 1557 1556 1555 1555 1555 1555
1494 1500 1504 1507 1511 1514 1519 1524 1528 1532 1536 1540 1542 1545 1548 1550 1552 1553 1553 1554 1554 1554 1556 1556 1555 1554 1553 1553 1554 1553 1551 1550 1550
1493 1500 1504 1507 1511 1514 1517 1522 1525 1529 1533 1537 1540 1542 1545 1548 1550 1550 1552 1550 1550 1552 1553 1551 1550 1549 1550 1550 1549 1549 1548 1547 1547
1493 1500 1503 1506 1510 1513 1516 1519 1523 1527 1530 1533 1537 1540 1542 1544 1546 1547 1547 1549 1550 1550 1549 1548 1548 1548 1547 1546 1546 1546 1543 1543 1544
1492 1500 1502 1504 1508 1512 1515 1517 1520 1524 1528 1532 1535 1538 1541 1543 1544 1546 1546 1547 1547 1547 1547 1545 1543 1542 1543 1542 1542 1540 1541 1539 1538
1490 1496 1498 1501 1506 1511 1514 1516 1519 1523 1527 1531 1534 1536 1539 1541 1541 1542 1543 1543 1543 1543 1542 1542 1541 1540 1539 1540 1537 1536 1536 1536 1533
1486 1491 1495 1498 1503 1508 1511 1514 1517 1521 1525 1528 1530 1532 1535 1537 1537 1539 1539 1540 1541 1541 1542 1541 1539 1538 1536 1535 1534 1533 1533 1532 1532
1482 1488 1492 1494 1498 1504 1508 1512 1516 1519 1522 1525 1527 1528 1531 1533 1535 1537 1539 1540 1540 1539 1539 1538 1537 1536 1534 1533 1532 1529 1528 1527 1526
1472 1482 1488 1492 1494 1499 1504 1509 1514 1517 1520 1522 1524 1527 1531 1534 1536 1537 1536 1536 1536 1535 1534 1533 1532 1531 1529 1527 1526 1524 1524 1522 1521
1460 1469 1480 1488 1492 1496 1502 1506 1510 1514 1517 1520 1524 1527 1529 1531 1532 1533 1534 1534 1533 1533 1532 1530 1528 1526 1524 1522 1521 1519 1516 1516 1515
1453 1458 1471 1482 1490 1495 1501 1505 1508 1512 1516 1520 1523 1526 1527 1529 1531 1532 1531 1532 1531 1529 1526 1524 1524 1521 1519 1516 1512 1511 1510 1508 1506
1450 1450 1461 1475 1484 1491 1499 1504 1507 1510 1515 1519 1521 1523 1525 1526 1528 1529 1529 1528 1527 1527 1524 1520 1517 1514 1512 1508 1506 1503 1501 1501 1500
1444 1448 1458 1473 1481 1492 1497 1502 1505 1508 1513 1517 1518 1519 1520 1522 1524 1526 1528 1524 1523 1523 1519 1516 1513 1509 1508 1506 1503 1500 1497 1496 1494
1451 1454 1464 1474 1485 1494 1500 1501 1503 1507 1509 1512 1516 1518 1519 1519 1518 1521 1519 1520 1519 1513 1516 1513 1509 1506 1503 1501 1500 1497 1495 1491 1490
1460 1466 1471 1479 1486 1494 1501 1502 1503 1503 1506 1509 1510 1516 1513 1515 1516 1514 1515 1512 1515 1512 1508 1506 1504 1503 1499 1496 1494 1493 1491 1487 1483
1467 1473 1477 1481 1489 1497 1499 1498 1498 1503 1505 1510 1514 1518 1512 1510 1512 1510 1512 1509 1508 1506 1504 1500 1499 1498 1495 1492 1488 1487 1483 1480 1477
1474 1479 1483 1489 1494 1496 1497 1498 1498 1498 1499 1503 1507 1510 1515 1510 1510 1508 1507 1504 1501 1502 1496 1492 1491 1489 1487 1484 1480 1478 1474 1471 1468
1481 1485 1487 1490 1491 1493 1494 1494 1503 1501 1500 1496 1501 1504 1505 1508 1503 1503 1502 1499 1496 1492 1489 1487 1485 1482 1479 1476 1472 1469 1465 1461 1457